Regional Weather Roundup
Issued by NWS Cleveland, OH

Home | Current Version | Previous Version | Graphics & Text | Print | Product List | Glossary On
Versions: 1 2 3 4 5 6 7 8 9 10 11 12 13 14 15 16 17 18 19 20 21 22 23 24 25 26 27 28 29 30 31 32 33 34 35 36 37 38 39 40 41 42 43 44 45 46 47 48 49 50
000
ASUS41 KCLE 250910
RWRCLE
OHIO REGIONAL WEATHER ROUNDUP
NATIONAL WEATHER SERVICE WILMINGTON, OH
500 AM EDT FRI JUL 25 2014

NOTE: "FAIR" INDICATES FEW OR NO CLOUDS BELOW 12,000 FEET WITH NO
SIGNIFICANT WEATHER AND/OR OBSTRUCTIONS TO VISIBILITY.

OHZ001>008-015>018-024>027-034-035-043-044-251000-
   NORTHWEST OHIO

CITY           SKY/WX    TMP DP  RH WIND       PRES   REMARKS
DEFIANCE       CLEAR     53  49  86 CALM      30.09R
FINDLAY        PTCLDY    54  50  86 CALM      30.07R
TOLEDO EXPRESS CLEAR     53  50  89 W3        30.08R
TOLEDO METCALF CLEAR     56  49  77 CALM      30.09R
LIMA           CLEAR     53  49  86 CALM      30.09R
$$

OHZ009>014-019>023-028>033-038-089-251000-
   NORTHEAST OHIO

CITY           SKY/WX    TMP DP  RH WIND       PRES   REMARKS
CLE-HOPKINS    PTCLDY    53  50  89 SW3       30.09R
CLE-LAKEFRONT  CLEAR     59  52  77 S6        30.05S
CUY CO. ARPT   NOT AVBL
LORAIN-ELYRIA  PTCLDY    54  50  86 SW3       30.08R
ASHTABULA      CLEAR     51  48  89 CALM      30.08R
AKRON-CANTON   CLEAR     53  48  83 CALM      30.08R
WOOSTER        CLEAR     48  45  89 CALM      30.09R
MANSFIELD      PTCLDY    51  50  96 CALM      30.08S
YOUNGSTOWN     CLEAR     49  46  90 CALM      30.08R
$$

OHZ042-051>053-060>062-070>072-077>081-251000-
  SOUTHWEST OHIO

CITY           SKY/WX    TMP DP  RH WIND       PRES   REMARKS
CINC-COVINGTON PTCLDY    60  50  69 E3        30.07S
CINC-LUNKEN    CLEAR     52  52 100 CALM      30.08R FOG
HAMILTON       CLEAR     52  51  97 CALM      30.09R
DAYTON         PTCLDY    57  50  77 CALM      30.08S
WRIGHT-PAT AFB CLEAR     55  52  92 SW2       30.07S
DAYTON GENERAL CLEAR     54  51  90 CALM      30.06S
WILMINGTON     CLEAR     54  49  83 E5        30.06F
$$

OHZ036-037-039>041-045>050-054>059-063>069-073>076-082>088-251000-
  CENTRAL AND SOUTHEAST OHIO

CITY           SKY/WX    TMP DP  RH WIND       PRES   REMARKS
COLUMBUS       CLEAR     56  50  80 CALM      30.06S
OSU AIRPORT    PTCLDY    54  51  90 CALM      30.07S
BOLTON FIELD   PTCLDY    50  50  99 CALM      30.07S
RICKENBACK AFB CLEAR     59  48  67 NE3       30.06S
NEWARK         CLEAR     51  49  92 CALM      30.07S FOG
MARION         PTCLDY    51  49  92 CALM      30.08R
LANCASTER      CLEAR     52  50  93 NE3       30.07S
ZANESVILLE     CLEAR     53  49  86 CALM      30.07S
NEW PHILLY     PTCLDY    50  48  93 CALM      30.09R
$$


USA.gov is the U.S. government's official web portal to all federal, state and local government web resources and services.